Location: Cles
(46.3653°N, 11.0332°E)
Time: 15:15:51
(UTC+02:00)

ISS - Visible Passes

Search period start: 23 June 2025 00:00
Search period end: 03 July 2025 00:00
Orbit: 414 x 417 km, 51.6° (Epoch: 23 June)

Date Brightness Start Highest point End Pass type
(mag) Time Alt. Az. Time Alt. Az. Time Alt. Az.
23 Jun -1.6 03:46:03 13° SSE 03:47:37 16° SE 03:49:49 10° E visible
24 Jun -3.5 04:32:08 10° SW 04:35:24 61° SSE 04:38:44 10° ENE visible
25 Jun -3.0 03:45:16 22° SSW 03:46:54 38° SE 03:50:03 10° ENE visible
26 Jun -2.3 02:58:20 24° SE 02:58:25 24° SE 03:01:11 10° E visible
26 Jun -3.4 04:31:36 10° WSW 04:34:56 65° NNW 04:38:17 10° ENE visible
27 Jun -1.3 02:11:21 13° ESE 02:11:21 13° ESE 02:12:01 10° E visible
27 Jun -3.8 03:44:12 21° WSW 03:46:17 87° SSE 03:49:40 10° ENE visible
28 Jun -3.6 02:57:09 48° S 02:57:41 56° SSE 03:01:00 10° ENE visible
28 Jun -2.5 04:31:20 10° W 04:34:32 40° NNW 04:37:44 10° ENE visible
29 Jun -2.4 02:10:02 29° ESE 02:10:02 29° ESE 02:12:13 10° ENE visible
29 Jun -3.0 03:42:53 13° W 03:45:47 50° NNW 03:49:04 10° ENE visible
30 Jun -1.2 01:22:51 12° E 01:22:51 12° E 01:23:16 10° E visible
30 Jun -3.6 02:55:42 33° W 02:57:03 69° NNW 03:00:25 10° ENE visible
30 Jun -2.0 04:31:04 10° WNW 04:34:09 32° N 04:37:14 10° ENE visible
01 Jul -3.9 02:08:27 79° ESE 02:08:27 79° ESE 02:11:44 10° ENE visible
01 Jul -2.2 03:42:11 10° WNW 03:45:19 35° N 03:48:27 10° ENE visible
02 Jul -2.3 01:21:07 28° E 01:21:07 28° E 01:22:58 10° ENE visible
02 Jul -2.6 02:53:58 15° W 02:56:30 41° NNW 02:59:44 10° ENE visible
02 Jul -1.9 04:30:39 10° WNW 04:33:43 33° N 04:36:49 10° ENE visible
